When you browse on this site, cookies collect data to enhance your experience and personalize the content and advertising you see.
Visit our Privacy Policy to learn more. By continuing to use the site, you agree to this use of cookies and data.
  • In Romania
  • List of Countries
  • For 7 days
  • Water Temperature
  • Satellite Maps
  • Weather Map
  • Weather Widgets
  • user-avatar
    Login

    Hourly Weather Wzorki

    Today, 20 May, Monday

    Time Temperature Precipitation Wind Pressure Humidity
    00:00 +14°C° 0 mm 2 mps 729 mmHg 92%
    01:00 +14°C° 0 mm 2 mps 728 mmHg 92%
    02:00 +14°C° 0 mm 2 mps 728 mmHg 93%
    03:00 +14°C° 0 mm 2 mps 728 mmHg 94%
    04:00 +13°C° 0 mm 3 mps 727 mmHg 95%
    05:00 +14°C° 0 mm 3 mps 727 mmHg 90%
    06:00 +17°C° 0 mm 4 mps 727 mmHg 86%
    07:00 +19°C° 0 mm 5 mps 728 mmHg 79%
    08:00 +20°C° 0 mm 5 mps 728 mmHg 73%
    09:00 +21°C° 0 mm 6 mps 728 mmHg 67%
    10:00 +22°C° 0 mm 6 mps 728 mmHg 61%
    11:00 +23°C° 0 mm 6 mps 729 mmHg 59%
    12:00 +23°C° 0 mm 5 mps 729 mmHg 56%
    13:00 +22°C° 0 mm 4 mps 729 mmHg 56%
    14:00 +22°C° 0 mm 4 mps 729 mmHg 58%
    15:00 +22°C° 0 mm 4 mps 729 mmHg 60%
    16:00 +22°C° 0 mm 4 mps 729 mmHg 61%
    17:00 +20°C° 0.1 mm 3 mps 729 mmHg 67%
    18:00 +19°C° 0.1 mm 3 mps 729 mmHg 73%
    19:00 +17°C° 0.1 mm 3 mps 729 mmHg 79%
    20:00 +16°C° 0 mm 3 mps 729 mmHg 81%
    21:00 +15°C° 0 mm 2 mps 729 mmHg 84%
    22:00 +14°C° 0 mm 2 mps 729 mmHg 86%
    23:00 +13°C° 0 mm 1 mps 729 mmHg 86%

    Tomorrow, 21 May, Tuesday

    Time Temperature Precipitation Wind Pressure Humidity
    00:00 +13°C° 0 mm 1 mps 729 mmHg 86%
    01:00 +12°C° 0 mm 1 mps 729 mmHg 87%
    02:00 +12°C° 0 mm 1 mps 729 mmHg 87%
    03:00 +12°C° 0 mm 1 mps 729 mmHg 87%
    04:00 +12°C° 0 mm 2 mps 729 mmHg 87%
    05:00 +13°C° 0 mm 2 mps 729 mmHg 84%
    06:00 +14°C° 0 mm 2 mps 729 mmHg 81%
    07:00 +16°C° 0 mm 2 mps 729 mmHg 78%
    08:00 +17°C° 0.3 mm 2 mps 728 mmHg 77%
    09:00 +18°C° 0.3 mm 3 mps 728 mmHg 75%
    10:00 +18°C° 0.3 mm 3 mps 728 mmHg 74%
    11:00 +18°C° 1.2 mm 3 mps 728 mmHg 76%
    12:00 +18°C° 1.2 mm 3 mps 728 mmHg 78%
    13:00 +18°C° 1.2 mm 3 mps 728 mmHg 80%
    14:00 +17°C° 1.3 mm 3 mps 727 mmHg 82%
    15:00 +17°C° 1.3 mm 3 mps 727 mmHg 84%
    16:00 +17°C° 1.3 mm 3 mps 727 mmHg 86%
    17:00 +15°C° 0.9 mm 4 mps 727 mmHg 86%
    18:00 +15°C° 0.9 mm 4 mps 727 mmHg 86%
    19:00 +15°C° 0.9 mm 5 mps 727 mmHg 87%
    20:00 +14°C° 1.2 mm 6 mps 727 mmHg 88%
    21:00 +14°C° 1.2 mm 6 mps 727 mmHg 89%
    22:00 +14°C° 1.2 mm 7 mps 727 mmHg 90%
    23:00 +14°C° 1 mm 7 mps 727 mmHg 91%

    Day after tomorrow, 22 May, Wednesday

    Time Temperature Precipitation Wind Pressure Humidity
    00:00 +14°C° 1 mm 7 mps 727 mmHg 91%
    01:00 +14°C° 1 mm 7 mps 727 mmHg 92%
    02:00 +12°C° 0.9 mm 7 mps 727 mmHg 92%
    03:00 +13°C° 0.9 mm 6 mps 727 mmHg 92%
    04:00 +13°C° 0.9 mm 6 mps 727 mmHg 92%
    05:00 +13°C° 0.6 mm 6 mps 727 mmHg 92%
    06:00 +13°C° 0.6 mm 6 mps 727 mmHg 91%
    07:00 +14°C° 0.6 mm 6 mps 728 mmHg 91%
    08:00 +14°C° 0.5 mm 5 mps 728 mmHg 91%
    09:00 +14°C° 0.5 mm 5 mps 728 mmHg 90%
    10:00 +14°C° 0.5 mm 4 mps 728 mmHg 90%
    11:00 +14°C° 0.9 mm 4 mps 729 mmHg 91%
    12:00 +14°C° 0.9 mm 3 mps 729 mmHg 92%
    13:00 +13°C° 0.9 mm 3 mps 729 mmHg 93%
    14:00 +14°C° 0.4 mm 3 mps 729 mmHg 91%
    15:00 +14°C° 0.4 mm 4 mps 729 mmHg 89%
    16:00 +15°C° 0.4 mm 4 mps 729 mmHg 87%
    17:00 +15°C° 1.3 mm 5 mps 729 mmHg 89%
    18:00 +14°C° 1.3 mm 5 mps 729 mmHg 90%
    19:00 +14°C° 1.3 mm 6 mps 730 mmHg 91%
    20:00 +14°C° 0.9 mm 6 mps 730 mmHg 92%
    21:00 +14°C° 0.9 mm 7 mps 730 mmHg 92%
    22:00 +14°C° 0.9 mm 7 mps 731 mmHg 93%
    23:00 +14°C° 0.3 mm 7 mps 731 mmHg 93%

    23 May, Thursday

    Time Temperature Precipitation Wind Pressure Humidity
    00:00 +13°C° 0.3 mm 6 mps 731 mmHg 94%
    01:00 +13°C° 0.3 mm 6 mps 731 mmHg 94%
    02:00 +13°C° 0.6 mm 6 mps 732 mmHg 95%
    03:00 +13°C° 0.6 mm 6 mps 732 mmHg 95%
    04:00 +13°C° 0.6 mm 6 mps 732 mmHg 95%
    05:00 +13°C° 1 mm 6 mps 733 mmHg 95%
    06:00 +13°C° 1 mm 6 mps 733 mmHg 94%
    07:00 +13°C° 1 mm 6 mps 734 mmHg 94%
    08:00 +11°C° 0.9 mm 7 mps 734 mmHg 94%
    09:00 +11°C° 0.9 mm 7 mps 734 mmHg 93%
    10:00 +10°C° 0.9 mm 7 mps 735 mmHg 93%
    11:00 +10°C° 0.2 mm 7 mps 735 mmHg 93%
    12:00 +10°C° 0.2 mm 7 mps 736 mmHg 92%
    13:00 +10°C° 0.2 mm 7 mps 736 mmHg 92%
    14:00 +10°C° 0.1 mm 6 mps 736 mmHg 90%
    15:00 +10°C° 0.1 mm 6 mps 736 mmHg 89%
    16:00 +9°C° 0.1 mm 6 mps 736 mmHg 88%
    17:00 +9°C° 0 mm 5 mps 736 mmHg 87%
    18:00 +10°C° 0 mm 4 mps 736 mmHg 86%
    19:00 +10°C° 0 mm 4 mps 736 mmHg 85%
    20:00 +10°C° 0 mm 4 mps 737 mmHg 84%
    21:00 +10°C° 0 mm 3 mps 737 mmHg 84%
    22:00 +10°C° 0 mm 3 mps 737 mmHg 84%
    23:00 +10°C° 0 mm 3 mps 737 mmHg 84%

    24 May, Friday

    Time Temperature Precipitation Wind Pressure Humidity
    00:00 +10°C° 0 mm 4 mps 737 mmHg 84%
    01:00 +8°C° 0 mm 4 mps 737 mmHg 84%
    02:00 +9°C° 0 mm 3 mps 737 mmHg 85%
    03:00 +9°C° 0 mm 3 mps 736 mmHg 87%
    04:00 +8°C° 0 mm 3 mps 736 mmHg 88%
    05:00 +9°C° 0 mm 3 mps 736 mmHg 83%
    06:00 +10°C° 0 mm 3 mps 736 mmHg 78%
    07:00 +11°C° 0 mm 3 mps 736 mmHg 73%
    08:00 +12°C° 0 mm 3 mps 736 mmHg 67%
    09:00 +14°C° 0 mm 4 mps 736 mmHg 62%
    10:00 +15°C° 0 mm 4 mps 736 mmHg 56%
    11:00 +15°C° 0 mm 4 mps 735 mmHg 54%
    12:00 +17°C° 0 mm 3 mps 735 mmHg 52%
    13:00 +18°C° 0 mm 3 mps 734 mmHg 50%
    14:00 +18°C° 0 mm 3 mps 734 mmHg 52%
    15:00 +18°C° 0 mm 3 mps 734 mmHg 53%
    16:00 +18°C° 0 mm 3 mps 733 mmHg 54%
    17:00 +16°C° 0 mm 2 mps 733 mmHg 60%
    18:00 +15°C° 0 mm 2 mps 733 mmHg 65%
    19:00 +14°C° 0 mm 1 mps 733 mmHg 71%
    20:00 +13°C° 0 mm 1 mps 733 mmHg 73%
    21:00 +12°C° 0 mm 1 mps 733 mmHg 74%
    22:00 +11°C° 0 mm 1 mps 733 mmHg 76%
    23:00 +10°C° 0 mm 1 mps 733 mmHg 78%

    25 May, Saturday

    Time Temperature Precipitation Wind Pressure Humidity
    00:00 +10°C° 0 mm 1 mps 733 mmHg 80%
    01:00 +9°C° 0 mm 1 mps 733 mmHg 83%
    02:00 +9°C° 0 mm 1 mps 733 mmHg 83%
    03:00 +9°C° 0 mm 1 mps 733 mmHg 84%
    04:00 +7°C° 0 mm 0 mps 733 mmHg 84%
    05:00 +10°C° 0 mm 1 mps 733 mmHg 80%
    06:00 +12°C° 0 mm 1 mps 733 mmHg 75%
    07:00 +14°C° 0 mm 1 mps 733 mmHg 71%
    08:00 +15°C° 0 mm 1 mps 733 mmHg 66%
    09:00 +18°C° 0 mm 1 mps 733 mmHg 62%
    10:00 +19°C° 0 mm 1 mps 733 mmHg 57%
    11:00 +20°C° 0 mm 1 mps 733 mmHg 54%
    12:00 +21°C° 0 mm 1 mps 732 mmHg 52%
    13:00 +22°C° 0 mm 1 mps 732 mmHg 49%
    14:00 +22°C° 0 mm 1 mps 732 mmHg 49%
    15:00 +22°C° 0 mm 1 mps 732 mmHg 49%
    16:00 +23°C° 0 mm 1 mps 732 mmHg 49%
    17:00 +21°C° 0 mm 1 mps 732 mmHg 56%
    18:00 +20°C° 0 mm 1 mps 732 mmHg 63%
    19:00 +18°C° 0 mm 1 mps 732 mmHg 70%
    20:00 +16°C° 0 mm 2 mps 732 mmHg 75%
    21:00 +15°C° 0 mm 2 mps 732 mmHg 80%
    22:00 +14°C° 0 mm 2 mps 733 mmHg 85%
    23:00 +12°C° 0 mm 3 mps 733 mmHg 88%
    Show more